Regional Weather Roundup
Issued by NWS Nashville, TN

Home | Current Version | Previous Version | Text Only | Print | Product List | Glossary On
Versions: 1 2 3 4 5 6 7 8 9 10 11 12 13 14 15 16 17 18 19 20 21 22 23 24 25 26 27 28 29 30 31 32 33 34 35 36 37 38 39 40 41 42 43 44 45 46 47 48 49 50
000
ASUS44 KOHX 302115
RWROHX
MIDDLE TENNESSEE HOURLY WEATHER ROUNDUP
NATIONAL WEATHER SERVICE NASHVILLE TN
400 PM CDT SAT MAY 30 2015

NOTE: "FAIR" INDICATES FEW OR NO CLOUDS BELOW 12,000 FEET WITH
NO SIGNIFICANT WEATHER AND/OR OBSTRUCTIONS TO VISIBILITY.

* THESE REPORTS ARE NOT UNDER NWS QUALITY CONTROL AND MAY NOT
  REPORT WEATHER SUCH AS PRECIPITATION AND FOG.


TNZ005>011-023>034-057-059-062>066-078-080-302200
...NORTHERN MIDDLE TENNESSEE...

CITY           SKY/WX    TMP DP  RH WIND       PRES   REMARKS
CASTALIAN SPRG   N/A     79  72  78 SE5       29.79F
CLARKSVILLE    PTSUNNY   82  66  58 S18G29    29.98S
CROSSVILLE     SUNNY     80  58  46 VRB7      30.12F
GLADEVILLE*      N/A     77  68  73 S5        29.97F
JOELTON*         N/A     79  72  78 E1        29.93S
MOUNT JULIET*    N/A     77  70  78 CALM      29.86F
NASHVILLE      PTSUNNY   78  70  76 S10       30.03F
OLD HICKORY*     N/A     79  73  83 CALM      29.64F
PORTLAND       PTSUNNY   79  66  65 S16       30.01F
ROCKWOOD       SUNNY     81  62  52 S10       30.11
SMYRNA         PTSUNNY   78  68  71 S8        30.04F
SPARTA         MOSUNNY   84  66  54 S8        30.05F
$$
TNZ056-058-060-061-075>077-079-093>097-302200
...SOUTHERN MIDDLE TENNESSEE...

CITY           SKY/WX    TMP DP  RH WIND       PRES   REMARKS
COLUMBIA       MOSUNNY   82  66  57 S14       30.01S
LEWISBURG      PTSUNNY   81  67  62 S10       30.03F
MANCHESTER*      N/A     81  68  65 CALM      29.94F
MCMINNVILLE    SUNNY     84  63  48 S7        30.06F
MOUNT PLEASANT   N/A     81  70  69 CALM      29.94F
SHELBYVILLE    SUNNY     81  72  74 SE8       30.06F
TULLAHOMA      SUNNY     79  66  65 W5        30.08F
WINCHESTER     SUNNY     84  61  45 S13       30.06F
$$


...KEY TO REMARKS...
VSB - VISIBILITY IN MILES
WCI - WIND CHILL INDEX
HX  - HEAT INDEX



USA.gov is the U.S. government's official web portal to all federal, state and local government web resources and services.